Location: Canet
(43.3261°N, 5.3723°E)
Time: 19:34:17
(UTC+00:00)

NOSS 2-1 (E) - Pass Details

Date: 24 January 2021
Orbit: 434 x 1768 km, 63.3° (Epoch: 27 February)

Event Time Altitude Azimuth Distance (km) Brightness Sun altitude
Rises 17:42:22 0° 202° (SSW) 2,501 7.3 -11.5°
Reaches altitude 10° 17:44:34 10° 196° (SSW) 1,566 6.1 -11.8°
Maximum altitude 17:47:46 46° 122° (ESE) 594 3.2 -12.4°
Enters shadow 17:49:42 21° 57° (ENE) 1,059 4.2 -12.7°
